VLG90KK LIRQ-LICC

Flight info

Callsign VLG90KK
Flight time 1h 15m
Altitude 37000
Route KUGIX L995 IBRID DCT AMTEL DCT SOVAN DCT GIKIN DCT LAT DCT VAKOR DCT PELEN DCT UXUTA DCT LIBRO
Aircraft A319/M-SDE3FGHIRWY/LB1

Departure

Time 2026-04-22 18:51
Airport Florence Airport, Peretola (LIRQ)

Arrival

Time 2026-04-22 20:07
Airport Catania-Fontanarossa Airport (LICC)
Time Latitude Longitude Altitude Speed Heading
2026-04-22 18:25 43.80296 11.20032 127 ft 0 kts 159°
2026-04-22 18:42 43.80300 11.20030 123 ft 3 kts 160°
2026-04-22 18:43 43.80326 11.20021 125 ft 4 kts 179°
2026-04-22 18:43 43.80353 11.20024 128 ft 4 kts 194°
2026-04-22 18:43 43.80375 11.20032 127 ft 1 kts 189°
2026-04-22 18:45 43.80364 11.20019 128 ft 4 kts 233°
2026-04-22 18:45 43.80359 11.19966 130 ft 5 kts 284°
2026-04-22 18:46 43.80383 11.19930 132 ft 6 kts 320°
2026-04-22 18:46 43.80421 11.19884 127 ft 10 kts 319°
2026-04-22 18:46 43.80494 11.19799 129 ft 16 kts 333°
2026-04-22 18:46 43.80596 11.19878 131 ft 20 kts 47°
2026-04-22 18:47 43.80696 11.20031 132 ft 22 kts 49°
2026-04-22 18:47 43.80793 11.20182 132 ft 21 kts 48°
2026-04-22 18:47 43.80894 11.20338 130 ft 22 kts 47°
2026-04-22 18:47 43.80996 11.20496 124 ft 23 kts 48°
2026-04-22 18:48 43.81099 11.20655 127 ft 21 kts 49°
2026-04-22 18:48 43.81195 11.20805 128 ft 20 kts 49°
2026-04-22 18:48 43.81265 11.20950 134 ft 17 kts 84°
2026-04-22 18:48 43.81260 11.21100 138 ft 14 kts 94°
2026-04-22 18:49 43.81263 11.21216 143 ft 11 kts 68°
2026-04-22 18:49 43.81319 11.21312 145 ft 15 kts 50°
2026-04-22 18:49 43.81408 11.21377 142 ft 16 kts 348°
2026-04-22 18:49 43.81499 11.21317 135 ft 15 kts 292°
2026-04-22 18:50 43.81474 11.21237 132 ft 0 kts 228°
2026-04-22 18:50 43.81422 11.21156 133 ft 46 kts 228°
2026-04-22 18:51 43.81003 11.20505 127 ft 132 kts 228°
2026-04-22 18:51 43.80321 11.19432 624 ft 149 kts 227°
2026-04-22 18:51 43.79844 11.18118 1245 ft 163 kts 269°
2026-04-22 18:51 43.80133 11.16629 1985 ft 165 kts 301°
2026-04-22 18:52 43.80610 11.15059 2343 ft 191 kts 285°
2026-04-22 18:52 43.80782 11.13137 2776 ft 210 kts 278°
2026-04-22 18:52 43.80897 11.10989 3127 ft 235 kts 276°
2026-04-22 18:52 43.80995 11.08731 4009 ft 235 kts 278°
2026-04-22 18:53 43.81094 11.06457 4869 ft 239 kts 278°
2026-04-22 18:53 43.81202 11.04154 5707 ft 241 kts 280°
2026-04-22 18:53 43.81700 11.02000 6509 ft 232 kts 313°
2026-04-22 18:53 43.82916 11.00659 7289 ft 221 kts 344°
2026-04-22 18:54 43.84408 11.00411 8073 ft 217 kts 12°
2026-04-22 18:54 43.85776 11.01263 8831 ft 220 kts 40°
2026-04-22 18:54 43.86650 11.03016 9587 ft 229 kts 70°
2026-04-22 18:54 43.86707 11.05256 10281 ft 243 kts 103°
2026-04-22 18:55 43.85977 11.07406 10974 ft 250 kts 116°
2026-04-22 18:55 43.85134 11.09531 11715 ft 253 kts 116°
2026-04-22 18:55 43.84277 11.11684 12454 ft 257 kts 115°
2026-04-22 18:55 43.83410 11.13869 13197 ft 261 kts 115°
2026-04-22 18:56 43.82533 11.16088 13939 ft 264 kts 115°
2026-04-22 18:56 43.81614 11.18318 14594 ft 271 kts 122°
2026-04-22 18:56 43.80307 11.20238 15184 ft 281 kts 140°
2026-04-22 18:56 43.78539 11.21641 15399 ft 306 kts 155°
2026-04-22 18:57 43.76517 11.22889 15591 ft 330 kts 155°
2026-04-22 18:57 43.74351 11.24231 15741 ft 353 kts 155°
2026-04-22 18:57 43.72042 11.25672 15907 ft 374 kts 155°
2026-04-22 18:57 43.69672 11.27157 16379 ft 383 kts 155°
2026-04-22 18:58 43.67227 11.28691 16990 ft 389 kts 155°
2026-04-22 18:58 43.64754 11.30248 17615 ft 393 kts 155°
2026-04-22 18:58 43.62247 11.31821 18250 ft 398 kts 155°
2026-04-22 18:58 43.59710 11.33408 18799 ft 403 kts 156°
2026-04-22 18:59 43.57132 11.35023 19304 ft 410 kts 156°
2026-04-22 18:59 43.54521 11.36676 19786 ft 416 kts 156°
2026-04-22 18:59 43.51910 11.38473 20261 ft 423 kts 154°
2026-04-22 18:59 43.49294 11.40400 20720 ft 430 kts 153°
2026-04-22 19:00 43.46662 11.42408 21181 ft 436 kts 153°
2026-04-22 19:00 43.43998 11.44467 21647 ft 442 kts 154°
2026-04-22 19:00 43.41296 11.46542 22112 ft 448 kts 154°
2026-04-22 19:00 43.38550 11.48625 22588 ft 453 kts 155°
2026-04-22 19:01 43.35764 11.50709 23054 ft 459 kts 155°
2026-04-22 19:01 43.32932 11.52805 23488 ft 465 kts 156°
2026-04-22 19:01 43.30069 11.54914 23899 ft 470 kts 156°
2026-04-22 19:01 43.27175 11.57043 24308 ft 473 kts 156°
2026-04-22 19:02 43.24265 11.59186 24733 ft 476 kts 156°
2026-04-22 19:02 43.21343 11.61347 25160 ft 479 kts 156°
2026-04-22 19:02 43.18403 11.63523 25563 ft 482 kts 156°
2026-04-22 19:02 43.15448 11.65711 25978 ft 484 kts 156°
2026-04-22 19:03 43.12482 11.67904 26395 ft 486 kts 156°
2026-04-22 19:03 43.09497 11.70105 26815 ft 488 kts 156°
2026-04-22 19:03 43.06496 11.72312 27241 ft 490 kts 156°
2026-04-22 19:03 43.03486 11.74519 27671 ft 492 kts 156°
2026-04-22 19:04 43.00461 11.76733 28095 ft 494 kts 156°
2026-04-22 19:04 42.97429 11.78956 28504 ft 496 kts 156°
2026-04-22 19:04 42.94383 11.81191 28917 ft 498 kts 156°
2026-04-22 19:04 42.91325 11.83433 29307 ft 500 kts 156°
2026-04-22 19:05 42.88252 11.85678 29698 ft 502 kts 157°
2026-04-22 19:05 42.85169 11.87925 30078 ft 504 kts 157°
2026-04-22 19:05 42.82077 11.90178 30409 ft 505 kts 157°
2026-04-22 19:05 42.78967 11.92437 30718 ft 507 kts 157°
2026-04-22 19:06 42.75848 11.94700 31001 ft 509 kts 157°
2026-04-22 19:06 42.72718 11.96970 31276 ft 511 kts 157°
2026-04-22 19:06 42.69602 11.99230 30931 ft 524 kts 157°
2026-04-22 19:07 42.63260 12.03839 32154 ft 510 kts 156°
2026-04-22 19:07 42.60142 12.06136 32508 ft 511 kts 155°
2026-04-22 19:07 42.57065 12.08546 32877 ft 511 kts 153°
2026-04-22 19:07 42.54022 12.11053 33266 ft 511 kts 152°
2026-04-22 19:08 42.51007 12.13607 33649 ft 511 kts 152°
2026-04-22 19:08 42.47998 12.16172 34054 ft 511 kts 152°
2026-04-22 19:08 42.44985 12.18716 34404 ft 510 kts 152°
2026-04-22 19:08 42.41967 12.21222 34764 ft 509 kts 152°
2026-04-22 19:09 42.38946 12.23692 35117 ft 507 kts 153°
2026-04-22 19:09 42.35920 12.26140 35448 ft 506 kts 153°
2026-04-22 19:09 42.33917 12.27757 35661 ft 506 kts 153°
2026-04-22 19:09 42.29886 12.31019 36089 ft 504 kts 152°
2026-04-22 19:10 42.26879 12.33455 36408 ft 503 kts 152°
2026-04-22 19:10 42.23883 12.35882 36715 ft 502 kts 152°
2026-04-22 19:10 42.20894 12.38302 36987 ft 502 kts 152°
2026-04-22 19:11 42.14921 12.43139 37051 ft 499 kts 152°
2026-04-22 19:11 42.08976 12.47949 37037 ft 498 kts 152°
2026-04-22 19:12 42.03038 12.52747 37029 ft 497 kts 153°
2026-04-22 19:12 41.97143 12.57490 37027 ft 497 kts 153°
2026-04-22 19:13 41.91214 12.62242 37027 ft 496 kts 153°
2026-04-22 19:13 41.85291 12.66981 37056 ft 496 kts 153°
2026-04-22 19:14 41.79362 12.71728 37060 ft 496 kts 152°
2026-04-22 19:14 41.73441 12.76455 37066 ft 495 kts 153°
2026-04-22 19:15 41.68522 12.80370 37066 ft 495 kts 153°
2026-04-22 19:15 41.61611 12.85861 37063 ft 494 kts 153°
2026-04-22 19:16 41.55693 12.90540 37063 ft 493 kts 155°
2026-04-22 19:16 41.50516 12.93524 37060 ft 486 kts 166°
2026-04-22 19:17 41.44148 12.96535 37065 ft 485 kts 166°
2026-04-22 19:17 41.37787 12.99545 37071 ft 485 kts 165°
2026-04-22 19:18 41.31428 13.02562 37079 ft 485 kts 165°
2026-04-22 19:18 41.25083 13.05571 37083 ft 484 kts 165°
2026-04-22 19:19 41.18783 13.08546 37082 ft 483 kts 165°
2026-04-22 19:19 41.12453 13.11530 37082 ft 482 kts 165°
2026-04-22 19:20 41.06134 13.14496 37084 ft 482 kts 165°
2026-04-22 19:20 40.99818 13.17453 37081 ft 481 kts 165°
2026-04-22 19:21 40.93512 13.20410 37085 ft 480 kts 165°
2026-04-22 19:21 40.87216 13.23354 37077 ft 480 kts 165°
2026-04-22 19:22 40.80919 13.26287 37085 ft 479 kts 165°
2026-04-22 19:22 40.74627 13.29207 37083 ft 479 kts 165°
2026-04-22 19:23 40.68347 13.32123 37079 ft 478 kts 165°
2026-04-22 19:23 40.62072 13.35032 37083 ft 478 kts 165°
2026-04-22 19:24 40.55801 13.37931 37085 ft 477 kts 165°
2026-04-22 19:24 40.49541 13.40823 37088 ft 477 kts 165°
2026-04-22 19:25 40.43328 13.43685 37084 ft 476 kts 165°
2026-04-22 19:25 40.37080 13.46553 37083 ft 475 kts 166°
2026-04-22 19:26 40.30839 13.49409 37079 ft 475 kts 166°
2026-04-22 19:26 40.24606 13.52257 37074 ft 474 kts 166°
2026-04-22 19:27 40.18381 13.55099 37071 ft 474 kts 165°
2026-04-22 19:27 40.12161 13.57939 37072 ft 473 kts 166°
2026-04-22 19:28 40.05948 13.60767 37067 ft 473 kts 166°
2026-04-22 19:28 39.99738 13.63587 37068 ft 472 kts 166°
2026-04-22 19:29 39.93530 13.66397 37063 ft 472 kts 166°
2026-04-22 19:29 39.87374 13.69191 37055 ft 472 kts 166°
2026-04-22 19:30 39.82177 13.71542 37060 ft 472 kts 166°
2026-04-22 19:30 39.74975 13.74789 37058 ft 471 kts 166°
2026-04-22 19:31 39.68783 13.77568 37056 ft 471 kts 166°
2026-04-22 19:31 39.62595 13.80347 37052 ft 471 kts 166°
2026-04-22 19:32 39.56403 13.83126 37051 ft 471 kts 166°
2026-04-22 19:32 39.50215 13.85891 37047 ft 470 kts 166°
2026-04-22 19:33 39.44027 13.88650 37050 ft 470 kts 166°
2026-04-22 19:33 39.37850 13.91406 37052 ft 469 kts 166°
2026-04-22 19:34 39.31718 13.94134 37052 ft 469 kts 166°
2026-04-22 19:34 39.25548 13.96873 37051 ft 469 kts 166°
2026-04-22 19:35 39.19387 13.99609 37050 ft 468 kts 166°
2026-04-22 19:35 39.13231 14.02336 37047 ft 467 kts 166°
2026-04-22 19:36 39.07084 14.05040 37044 ft 467 kts 166°
2026-04-22 19:36 39.00937 14.07750 37045 ft 467 kts 166°
2026-04-22 19:37 38.94800 14.10458 36823 ft 467 kts 166°
2026-04-22 19:37 38.91728 14.11803 36556 ft 466 kts 166°
2026-04-22 19:37 38.88657 14.13145 36294 ft 467 kts 166°
2026-04-22 19:37 38.85580 14.14490 36038 ft 468 kts 166°
2026-04-22 19:38 38.82569 14.15966 35690 ft 472 kts 160°
2026-04-22 19:38 38.79564 14.17751 34754 ft 480 kts 159°
2026-04-22 19:38 38.76532 14.19578 33902 ft 484 kts 159°
2026-04-22 19:38 38.73482 14.21431 33144 ft 484 kts 159°
2026-04-22 19:39 38.70466 14.23271 32630 ft 478 kts 159°
2026-04-22 19:39 38.67475 14.25088 32045 ft 474 kts 159°
2026-04-22 19:39 38.64506 14.26881 31475 ft 470 kts 159°
2026-04-22 19:39 38.61560 14.28652 30912 ft 466 kts 159°
2026-04-22 19:40 38.58632 14.30403 30353 ft 463 kts 159°
2026-04-22 19:40 38.55721 14.32139 29749 ft 460 kts 159°
2026-04-22 19:40 38.52838 14.33856 29212 ft 455 kts 159°
2026-04-22 19:40 38.49985 14.35553 28669 ft 450 kts 159°
2026-04-22 19:41 38.47161 14.37234 28144 ft 445 kts 159°
2026-04-22 19:41 38.44368 14.38901 27625 ft 441 kts 159°
2026-04-22 19:41 38.41602 14.40556 27158 ft 437 kts 159°
2026-04-22 19:41 38.38854 14.42194 26999 ft 435 kts 159°
2026-04-22 19:42 38.36106 14.43825 26969 ft 436 kts 159°
2026-04-22 19:42 38.33352 14.45455 25921 ft 441 kts 159°
2026-04-22 19:42 38.30594 14.47088 25119 ft 441 kts 159°
2026-04-22 19:42 38.27846 14.48725 24693 ft 432 kts 159°
2026-04-22 19:43 38.22440 14.51942 23759 ft 426 kts 159°
2026-04-22 19:43 38.19758 14.53537 23226 ft 425 kts 159°
2026-04-22 19:43 38.17091 14.55120 22763 ft 421 kts 159°
2026-04-22 19:44 38.14445 14.56686 22287 ft 418 kts 159°
2026-04-22 19:44 38.11816 14.58237 21820 ft 415 kts 159°
2026-04-22 19:44 38.09205 14.59771 21336 ft 412 kts 159°
2026-04-22 19:44 38.06607 14.61297 20867 ft 410 kts 159°
2026-04-22 19:45 38.04026 14.62816 20387 ft 409 kts 159°
2026-04-22 19:45 38.01450 14.64333 19901 ft 408 kts 159°
2026-04-22 19:45 37.98879 14.65839 19415 ft 406 kts 160°
2026-04-22 19:45 37.96213 14.66896 18932 ft 398 kts 174°
2026-04-22 19:46 37.93484 14.67132 18469 ft 389 kts 188°
2026-04-22 19:46 37.90847 14.66591 17884 ft 381 kts 201°
2026-04-22 19:46 37.88428 14.65344 17366 ft 371 kts 213°
2026-04-22 19:46 37.86200 14.63738 16857 ft 367 kts 214°
2026-04-22 19:47 37.84015 14.62164 16361 ft 365 kts 214°
2026-04-22 19:47 37.81814 14.60585 15865 ft 363 kts 214°
2026-04-22 19:47 37.79626 14.59017 15372 ft 361 kts 214°
2026-04-22 19:47 37.77448 14.57455 14875 ft 359 kts 214°
2026-04-22 19:48 37.75292 14.55906 14395 ft 356 kts 214°
2026-04-22 19:48 37.73146 14.54367 13949 ft 353 kts 214°
2026-04-22 19:48 37.70903 14.53097 13474 ft 356 kts 198°
2026-04-22 19:48 37.68414 14.52923 12900 ft 365 kts 173°
2026-04-22 19:49 37.66040 14.54021 12318 ft 370 kts 149°
2026-04-22 19:49 37.64228 14.56281 11955 ft 366 kts 123°
2026-04-22 19:49 37.63291 14.59182 11802 ft 351 kts 99°
2026-04-22 19:49 37.63228 14.62146 11666 ft 327 kts 83°
2026-04-22 19:50 37.63399 14.64922 11535 ft 308 kts 83°
2026-04-22 19:50 37.63572 14.67549 11408 ft 294 kts 83°
2026-04-22 19:50 37.63614 14.70079 11055 ft 287 kts 99°
2026-04-22 19:50 37.62838 14.72349 10608 ft 282 kts 130°
2026-04-22 19:51 37.61328 14.73837 10149 ft 274 kts 160°
2026-04-22 19:51 37.59516 14.74342 9716 ft 271 kts 176°
2026-04-22 19:51 37.57644 14.74628 9369 ft 270 kts 177°
2026-04-22 19:51 37.55829 14.74424 9092 ft 257 kts 205°
2026-04-22 19:52 37.54428 14.73179 8864 ft 242 kts 236°
2026-04-22 19:52 37.53739 14.71341 8667 ft 228 kts 263°
2026-04-22 19:52 37.53557 14.69390 8479 ft 222 kts 267°
2026-04-22 19:52 37.53393 14.67479 8287 ft 216 kts 267°
2026-04-22 19:53 37.53232 14.65621 8103 ft 211 kts 267°
2026-04-22 19:53 37.53073 14.63808 7954 ft 205 kts 267°
2026-04-22 19:53 37.52914 14.62035 7870 ft 203 kts 267°
2026-04-22 19:53 37.52758 14.60274 7778 ft 202 kts 267°
2026-04-22 19:54 37.52603 14.58514 7680 ft 202 kts 267°
2026-04-22 19:54 37.52448 14.56753 7587 ft 202 kts 267°
2026-04-22 19:54 37.52292 14.54996 7469 ft 202 kts 267°
2026-04-22 19:54 37.52137 14.53237 7389 ft 202 kts 267°
2026-04-22 19:55 37.51981 14.51482 7265 ft 202 kts 267°
2026-04-22 19:55 37.51825 14.49727 7141 ft 202 kts 266°
2026-04-22 19:55 37.51670 14.47971 7033 ft 201 kts 267°
2026-04-22 19:55 37.51386 14.46243 6921 ft 205 kts 248°
2026-04-22 19:56 37.50455 14.44872 6818 ft 212 kts 215°
2026-04-22 19:56 37.49066 14.44320 6701 ft 218 kts 182°
2026-04-22 19:56 37.47553 14.44496 6591 ft 219 kts 175°
2026-04-22 19:56 37.46040 14.44715 6458 ft 218 kts 175°
2026-04-22 19:57 37.44535 14.44933 6337 ft 218 kts 175°
2026-04-22 19:57 37.43096 14.45490 6207 ft 219 kts 148°
2026-04-22 19:57 37.42052 14.46848 6091 ft 217 kts 117°
2026-04-22 19:57 37.41666 14.48641 5983 ft 212 kts 87°
2026-04-22 19:58 37.41810 14.50478 5879 ft 211 kts 81°
2026-04-22 19:58 37.41975 14.52305 5759 ft 210 kts 81°
2026-04-22 19:58 37.42136 14.54124 5654 ft 209 kts 81°
2026-04-22 19:58 37.42298 14.55937 5546 ft 208 kts 81°
2026-04-22 19:59 37.42459 14.57745 5448 ft 208 kts 81°
2026-04-22 20:00 37.43395 14.68478 4743 ft 203 kts 82°
2026-04-22 20:00 37.43549 14.70240 4563 ft 202 kts 82°
2026-04-22 20:01 37.43702 14.71996 4386 ft 201 kts 82°
2026-04-22 20:01 37.43855 14.73741 4213 ft 200 kts 82°
2026-04-22 20:01 37.44006 14.75478 4039 ft 199 kts 82°
2026-04-22 20:01 37.44154 14.77179 3874 ft 197 kts 82°
2026-04-22 20:02 37.44303 14.78887 3698 ft 195 kts 82°
2026-04-22 20:02 37.44449 14.80581 3524 ft 194 kts 83°
2026-04-22 20:02 37.44595 14.82260 3361 ft 193 kts 83°
2026-04-22 20:02 37.44739 14.83931 3242 ft 191 kts 83°
2026-04-22 20:03 37.44883 14.85601 3088 ft 192 kts 84°
2026-04-22 20:03 37.45027 14.87264 2867 ft 191 kts 84°
2026-04-22 20:03 37.45170 14.88926 2620 ft 191 kts 84°
2026-04-22 20:03 37.45312 14.90584 2413 ft 188 kts 84°
2026-04-22 20:04 37.45451 14.92207 2117 ft 183 kts 84°
2026-04-22 20:04 37.45583 14.93751 1879 ft 172 kts 84°
2026-04-22 20:04 37.45707 14.95197 1662 ft 160 kts 84°
2026-04-22 20:04 37.45821 14.96536 1459 ft 146 kts 84°
2026-04-22 20:05 37.45925 14.97748 1260 ft 135 kts 84°
2026-04-22 20:05 37.46023 14.98902 1117 ft 131 kts 84°
2026-04-22 20:05 37.46119 15.00031 941 ft 129 kts 84°
2026-04-22 20:05 37.46214 15.01146 770 ft 128 kts 83°
2026-04-22 20:06 37.46307 15.02256 583 ft 127 kts 83°
2026-04-22 20:06 37.46398 15.03360 422 ft 126 kts 83°
2026-04-22 20:06 37.46489 15.04442 229 ft 125 kts 82°
2026-04-22 20:06 37.46584 15.05528 65 ft 124 kts 83°
2026-04-22 20:07 37.46669 15.06457 37 ft 76 kts 84°
2026-04-22 20:07 37.46710 15.06988 36 ft 44 kts 85°
2026-04-22 20:07 37.46732 15.07283 36 ft 32 kts 85°
2026-04-22 20:07 37.46757 15.07531 36 ft 27 kts 76°
2026-04-22 20:08 37.46835 15.07735 35 ft 18 kts 55°
2026-04-22 20:08 37.46926 15.07785 31 ft 16 kts 311°
2026-04-22 20:08 37.46929 15.07651 33 ft 16 kts 264°
2026-04-22 20:08 37.46918 15.07511 32 ft 16 kts 264°
2026-04-22 20:09 37.46906 15.07367 32 ft 17 kts 264°
2026-04-22 20:09 37.46893 15.07217 31 ft 17 kts 263°
2026-04-22 20:09 37.46879 15.07062 31 ft 18 kts 263°
2026-04-22 20:09 37.46866 15.06902 32 ft 19 kts 264°
2026-04-22 20:10 37.46853 15.06737 32 ft 19 kts 264°
2026-04-22 20:10 37.46839 15.06572 32 ft 19 kts 263°
2026-04-22 20:10 37.46834 15.06452 32 ft 10 kts 296°
2026-04-22 20:10 37.46902 15.06446 32 ft 11 kts 18°
2026-04-22 20:11 37.46956 15.06470 31 ft 2 kts 19°
2026-04-22 20:11 37.46966 15.06474 31 ft 1 kts 19°
2026-04-22 20:11 37.46967 15.06474 31 ft 0 kts 19°